| time (UTC) | temp F | wind direction | speed MPH | gust MPH | rain 1hr in | rain 24hr in | rain mn in | humidity % | barometer mb |
| 20260505221323 | 83 | 158 | 7.0 | 12.0 | 0.00 | 0.00 | 0.00 | 76 | 1007.1 |
| 20260505220835 | 83 | 175 | 6.0 | 14.0 | 0.00 | 0.00 | 0.00 | 76 | 1007.1 |
| 20260505220359 | 83 | 175 | 7.0 | 14.0 | 0.00 | 0.00 | 0.00 | 76 | 1007.5 |
| 20260505215841 | 83 | 190 | 7.0 | 14.0 | 0.00 | 0.00 | 0.00 | 76 | 1007.5 |
| 20260505215325 | 83 | 189 | 6.0 | 14.0 | 0.00 | 0.00 | 0.00 | 77 | 1007.5 |
| 20260505214831 | 83 | 229 | 7.0 | 14.0 | 0.00 | 0.00 | 0.00 | 76 | 1007.6 |
| 20260505214336 | 84 | 186 | 8.0 | 14.0 | 0.00 | 0.00 | 0.00 | 76 | 1007.6 |
| 20260505213841 | 84 | 186 | 4.0 | 14.0 | 0.00 | 0.00 | 0.00 | 77 | 1007.6 |
| 20260505213325 | 83 | 172 | 4.0 | 12.0 | 0.00 | 0.00 | 0.00 | 77 | 1007.6 |
| 20260505212829 | 83 | 217 | 6.0 | 13.0 | 0.00 | 0.00 | 0.00 | 76 | 1007.6 |
| 20260505212334 | 84 | 198 | 4.0 | 14.0 | 0.00 | 0.00 | 0.00 | 76 | 1007.6 |
| 20260505211840 | 84 | 201 | 7.0 | 16.0 | 0.00 | 0.00 | 0.00 | 76 | 1007.9 |
| 20260505211346 | 84 | 198 | 8.0 | 16.0 | 0.00 | 0.00 | 0.00 | 76 | 1007.9 |
| 20260505210834 | 84 | 170 | 6.0 | 14.0 | 0.00 | 0.00 | 0.00 | 76 | 1007.9 |
| 20260505210323 | 84 | 144 | 8.0 | 12.0 | 0.00 | 0.00 | 0.00 | 76 | 1008.0 |
| 20260505205831 | 84 | 203 | 4.0 | 12.0 | 0.00 | 0.00 | 0.00 | 76 | 1008.0 |
| 20260505205334 | 83 | 220 | 4.0 | 13.0 | 0.00 | 0.00 | 0.00 | 77 | 1008.0 |
| 20260505204821 | 84 | 170 | 8.0 | 13.0 | 0.00 | 0.00 | 0.00 | 76 | 1008.1 |
| 20260505204329 | 84 | 120 | 5.0 | 12.0 | 0.00 | 0.00 | 0.00 | 76 | 1008.1 |
| 20260505203836 | 84 | 205 | 9.0 | 12.0 | 0.00 | 0.00 | 0.00 | 75 | 1008.1 |
| 20260505203343 | 85 | 190 | 6.0 | 12.0 | 0.00 | 0.00 | 0.00 | 74 | 1008.5 |
| 20260505202830 | 85 | 168 | 4.0 | 12.0 | 0.00 | 0.00 | 0.00 | 75 | 1008.5 |
| 20260505202338 | 85 | 175 | 7.0 | 12.0 | 0.00 | 0.00 | 0.00 | 74 | 1008.5 |
| 20260505201826 | 84 | 214 | 4.0 | 10.0 | 0.00 | 0.00 | 0.00 | 76 | 1008.7 |
| 20260505201334 | 84 | 195 | 6.0 | 12.0 | 0.00 | 0.00 | 0.00 | 75 | 1008.7 |
| 20260505200825 | 84 | 194 | 7.0 | 12.0 | 0.00 | 0.00 | 0.00 | 75 | 1008.7 |
| 20260505200330 | 84 | 198 | 4.0 | 13.0 | 0.00 | 0.00 | 0.00 | 75 | 1008.9 |
| 20260505195853 | 84 | 192 | 3.0 | 13.0 | 0.00 | 0.00 | 0.00 | 76 | 1008.9 |
| 20260505195336 | 84 | 215 | 7.0 | 13.0 | 0.00 | 0.00 | 0.00 | 75 | 1008.9 |
| 20260505194822 | 83 | 159 | 5.0 | 13.0 | 0.00 | 0.00 | 0.00 | 75 | 1009.1 |
| 20260505194327 | 83 | 170 | 8.0 | 12.0 | 0.00 | 0.00 | 0.00 | 76 | 1009.1 |
| 20260505193852 | 83 | 189 | 6.0 | 12.0 | 0.00 | 0.00 | 0.00 | 77 | 1009.1 |
| 20260505193336 | 83 | 175 | 6.0 | 12.0 | 0.00 | 0.00 | 0.00 | 77 | 1009.1 |
| 20260505192900 | 83 | 207 | 5.0 | 12.0 | 0.00 | 0.00 | 0.00 | 77 | 1009.1 |
| 20260505192403 | 83 | 154 | 5.0 | 12.0 | 0.00 | 0.00 | 0.00 | 77 | 1009.1 |
| 20260505191827 | 83 | 161 | 4.0 | 12.0 | 0.00 | 0.00 | 0.00 | 78 | 1009.1 |
| 20260505191334 | 83 | 127 | 5.0 | 11.0 | 0.00 | 0.00 | 0.00 | 77 | 1009.1 |
| 20260505190837 | 83 | 201 | 6.0 | 16.0 | 0.00 | 0.00 | 0.00 | 76 | 1009.1 |
| 20260505190322 | 84 | 175 | 5.0 | 16.0 | 0.00 | 0.00 | 0.00 | 74 | 1009.2 |
| 20260505185824 | 84 | 180 | 6.0 | 11.0 | 0.00 | 0.00 | 0.00 | 74 | 1009.2 |
| 20260505185330 | 84 | 260 | 6.0 | 16.0 | 0.00 | 0.00 | 0.00 | 76 | 1009.2 |
| 20260505184854 | 83 | 200 | 9.0 | 16.0 | 0.00 | 0.00 | 0.00 | 76 | 1009.4 |
| 20260505184340 | 83 | 215 | 6.0 | 14.0 | 0.00 | 0.00 | 0.00 | 76 | 1009.4 |
| 20260505183824 | 82 | 218 | 6.0 | 15.0 | 0.00 | 0.00 | 0.00 | 77 | 1009.4 |
| 20260505183330 | 82 | 171 | 4.0 | 15.0 | 0.00 | 0.00 | 0.00 | 78 | 1009.5 |
| 20260505182836 | 82 | 127 | 6.0 | 14.0 | 0.00 | 0.00 | 0.00 | 78 | 1009.5 |
| 20260505182340 | 82 | 200 | 5.0 | 14.0 | 0.00 | 0.00 | 0.00 | 79 | 1009.5 |
| 20260505181826 | 82 | 176 | 7.0 | 16.0 | 0.00 | 0.00 | 0.00 | 78 | 1009.6 |
| 20260505181331 | 82 | 184 | 7.0 | 16.0 | 0.00 | 0.00 | 0.00 | 79 | 1009.6 |
| 20260505180836 | 82 | 137 | 4.0 | 17.0 | 0.00 | 0.00 | 0.00 | 80 | 1009.6 |
| 20260505180401 | 81 | 156 | 9.0 | 17.0 | 0.00 | 0.00 | 0.00 | 80 | 1009.7 |
| 20260505175824 | 80 | 191 | 6.0 | 12.0 | 0.00 | 0.00 | 0.00 | 82 | 1009.7 |
| 20260505175348 | 80 | 144 | 5.0 | 12.0 | 0.00 | 0.00 | 0.00 | 81 | 1009.7 |
| 20260505174856 | 81 | 184 | 7.0 | 12.0 | 0.00 | 0.00 | 0.00 | 80 | 1009.8 |
| 20260505174344 | 81 | 189 | 4.0 | 10.0 | 0.00 | 0.00 | 0.00 | 80 | 1009.8 |
| 20260505173827 | 81 | 208 | 3.0 | 12.0 | 0.00 | 0.00 | 0.00 | 80 | 1009.8 |
| 20260505173331 | 80 | 170 | 5.0 | 12.0 | 0.00 | 0.00 | 0.00 | 80 | 1009.9 |
| 20260505172835 | 80 | 192 | 5.0 | 11.0 | 0.00 | 0.00 | 0.00 | 81 | 1009.9 |
| 20260505172401 | 80 | 206 | 4.0 | 10.0 | 0.00 | 0.00 | 0.00 | 81 | 1009.9 |
| 20260505171825 | 80 | 250 | 5.0 | 10.0 | 0.00 | 0.00 | 0.00 | 81 | 1010.1 |
| 20260505171330 | 80 | 168 | 6.0 | 12.0 | 0.00 | 0.00 | 0.00 | 81 | 1010.1 |
| 20260505170837 | 80 | 111 | 6.0 | 12.0 | 0.00 | 0.00 | 0.00 | 82 | 1010.1 |
| 20260505170325 | 80 | 169 | 8.0 | 12.0 | 0.00 | 0.00 | 0.00 | 82 | 1010.2 |
| 20260505165829 | 79 | 189 | 6.0 | 11.0 | 0.00 | 0.00 | 0.00 | 84 | 1010.2 |
| 20260505165335 | 78 | 177 | 3.0 | 11.0 | 0.00 | 0.00 | 0.00 | 86 | 1010.2 |
| 20260505164841 | 78 | 174 | 3.0 | 12.0 | 0.00 | 0.00 | 0.00 | 88 | 1010.1 |
| 20260505164330 | 77 | 196 | 5.0 | 9.0 | 0.00 | 0.00 | 0.00 | 87 | 1010.1 |
| 20260505163854 | 78 | 166 | 5.0 | 10.0 | 0.00 | 0.00 | 0.00 | 87 | 1010.1 |
| 20260505163336 | 78 | 148 | 6.0 | 10.0 | 0.00 | 0.00 | 0.00 | 85 | 1009.9 |
| 20260505162841 | 79 | 199 | 4.0 | 11.0 | 0.00 | 0.00 | 0.00 | 85 | 1009.9 |
| 20260505162325 | 79 | 174 | 5.0 | 12.0 | 0.00 | 0.00 | 0.00 | 85 | 1009.9 |
| 20260505161832 | 78 | 217 | 3.0 | 12.0 | 0.00 | 0.00 | 0.00 | 85 | 1009.9 |
| 20260505161337 | 78 | 194 | 6.0 | 11.0 | 0.00 | 0.00 | 0.00 | 85 | 1009.9 |
| 20260505160901 | 78 | 168 | 5.0 | 13.0 | 0.00 | 0.00 | 0.00 | 85 | 1009.9 |
| 20260505160324 | 78 | 180 | 3.0 | 13.0 | 0.00 | 0.00 | 0.00 | 85 | 1009.8 |
| 20260505153336 | 77 | 153 | 6.0 | 14.0 | 0.00 | 0.00 | 0.00 | 87 | 1009.6 |
| 20260505152822 | 77 | 146 | 4.0 | 13.0 | 0.00 | 0.00 | 0.00 | 87 | 1009.6 |
| 20260505152348 | 77 | 170 | 8.0 | 13.0 | 0.00 | 0.00 | 0.00 | 87 | 1009.6 |
| 20260505151851 | 77 | 189 | 5.0 | 13.0 | 0.00 | 0.00 | 0.00 | 87 | 1009.6 |
| 20260505151354 | 77 | 168 | 5.0 | 14.0 | 0.00 | 0.00 | 0.00 | 87 | 1009.6 |
| 20260505150837 | 77 | 182 | 6.0 | 14.0 | 0.00 | 0.00 | 0.00 | 87 | 1009.6 |
| 20260505150324 | 77 | 131 | 7.0 | 11.0 | 0.00 | 0.00 | 0.00 | 86 | 1009.6 |
| 20260505140333 | 76 | 203 | 6.0 | 15.0 | 0.00 | 0.00 | 0.00 | 88 | 1009.6 |
| 20260505124837 | 73 | 186 | 6.0 | 11.0 | 0.00 | 0.00 | 0.00 | 91 | 1009.1 |
| 20260505124323 | 73 | 186 | 4.0 | 10.0 | 0.00 | 0.00 | 0.00 | 91 | 1009.1 |
| 20260505123829 | 73 | 161 | 4.0 | 7.0 | 0.00 | 0.00 | 0.00 | 92 | 1009.1 |
| 20260505123334 | 73 | 153 | 3.0 | 7.0 | 0.00 | 0.00 | 0.00 | 92 | 1009.1 |
| 20260505122900 | 73 | 153 | 4.0 | 9.0 | 0.00 | 0.00 | 0.00 | 92 | 1009.1 |
| 20260505122323 | 72 | 149 | 4.0 | 9.0 | 0.00 | 0.00 | 0.00 | 92 | 1009.1 |
| 20260505121850 | 72 | 161 | 2.0 | 6.0 | 0.00 | 0.00 | 0.00 | 92 | 1008.8 |
| 20260505121333 | 72 | 174 | 4.0 | 7.0 | 0.00 | 0.00 | 0.00 | 92 | 1008.8 |
| 20260505120901 | 72 | 179 | 3.0 | 11.0 | 0.00 | 0.00 | 0.00 | 92 | 1008.8 |
| 20260505120326 | 72 | 154 | 4.0 | 11.0 | 0.00 | 0.00 | 0.00 | 92 | 1008.6 |
| 20260505115853 | 72 | 183 | 6.0 | 10.0 | 0.00 | 0.00 | 0.00 | 92 | 1008.6 |
| 20260505115341 | 72 | 184 | 3.0 | 6.0 | 0.00 | 0.00 | 0.00 | 92 | 1008.6 |
| 20260505114825 | 72 | 149 | 3.0 | 7.0 | 0.00 | 0.00 | 0.00 | 92 | 1009.0 |
| 20260505114331 | 72 | 140 | 3.0 | 7.0 | 0.00 | 0.00 | 0.00 | 92 | 1009.0 |
| 20260505113857 | 72 | 172 | 3.0 | 5.0 | 0.00 | 0.00 | 0.00 | 92 | 1009.0 |
| 20260505113455 | 72 | 156 | 4.0 | 5.0 | 0.00 | 0.00 | 0.00 | 92 | 1009.0 |
| 20260505112845 | 72 | 175 | 3.0 | 5.0 | 0.00 | 0.00 | 0.00 | 92 | 1008.9 |
| 20260505112353 | 71 | 175 | 2.0 | 5.0 | 0.00 | 0.00 | 0.00 | 92 | 1008.9 |
| 20260505111836 | 71 | 184 | 3.0 | 5.0 | 0.00 | 0.00 | 0.00 | 92 | 1008.7 |
| 20260505111322 | 71 | 127 | 2.0 | 5.0 | 0.00 | 0.00 | 0.00 | 92 | 1008.7 |
| 20260505110827 | 71 | 177 | 2.0 | 6.0 | 0.00 | 0.00 | 0.00 | 92 | 1008.7 |
| 20260505110352 | 71 | 182 | 4.0 | 7.0 | 0.00 | 0.00 | 0.00 | 92 | 1008.6 |
| 20260505101840 | 71 | 165 | 2.0 | 5.0 | 0.00 | 0.00 | 0.00 | 92 | 1008.9 |
| 20260505101345 | 71 | 179 | 2.0 | 5.0 | 0.00 | 0.00 | 0.00 | 92 | 1008.9 |
| 20260505100832 | 71 | 179 | 2.0 | 5.0 | 0.00 | 0.00 | 0.00 | 91 | 1008.9 |
| 20260505100337 | 71 | 161 | 2.0 | 5.0 | 0.00 | 0.00 | 0.00 | 91 | 1009.1 |
| 20260505095902 | 71 | 165 | 3.0 | 6.0 | 0.00 | 0.00 | 0.00 | 91 | 1009.1 |
| 20260505095324 | 71 | 163 | 4.0 | 6.0 | 0.00 | 0.00 | 0.00 | 91 | 1009.1 |
| 20260505094827 | 71 | 190 | 2.0 | 6.0 | 0.00 | 0.00 | 0.00 | 91 | 1008.9 |
| 20260505094351 | 71 | 123 | 2.0 | 7.0 | 0.00 | 0.00 | 0.00 | 91 | 1008.9 |
| 20260505093836 | 71 | 153 | 3.0 | 7.0 | 0.00 | 0.00 | 0.00 | 91 | 1008.9 |
| 20260505093321 | 71 | 189 | 3.0 | 7.0 | 0.00 | 0.00 | 0.00 | 91 | 1009.1 |
| 20260505092849 | 71 | 168 | 3.0 | 9.0 | 0.00 | 0.00 | 0.00 | 91 | 1009.1 |
| 20260505092338 | 71 | 177 | 5.0 | 9.0 | 0.00 | 0.00 | 0.00 | 91 | 1009.1 |
| 20260505091824 | 71 | 170 | 3.0 | 6.0 | 0.00 | 0.00 | 0.00 | 90 | 1009.1 |
| 20260505091329 | 71 | 151 | 3.0 | 7.0 | 0.00 | 0.00 | 0.00 | 90 | 1009.1 |
| 20260505090834 | 71 | 191 | 4.0 | 7.0 | 0.00 | 0.00 | 0.00 | 90 | 1009.1 |
| 20260505090322 | 71 | 178 | 3.0 | 4.0 | 0.00 | 0.00 | 0.00 | 90 | 1009.1 |
| 20260505085823 | 71 | 174 | 2.0 | 5.0 | 0.00 | 0.00 | 0.00 | 90 | 1009.1 |
| 20260505085328 | 71 | 132 | 3.0 | 6.0 | 0.00 | 0.00 | 0.00 | 90 | 1009.1 |
| 20260505084835 | 71 | 186 | 3.0 | 6.0 | 0.00 | 0.00 | 0.00 | 90 | 1009.1 |
| 20260505084341 | 71 | 176 | 3.0 | 5.0 | 0.00 | 0.00 | 0.00 | 90 | 1009.1 |
| 20260505083823 | 71 | 184 | 2.0 | 5.0 | 0.00 | 0.00 | 0.00 | 90 | 1009.1 |
| 20260505083327 | 71 | 160 | 2.0 | 4.0 | 0.00 | 0.00 | 0.00 | 90 | 1009.5 |
| 20260505082834 | 71 | 175 | 2.0 | 5.0 | 0.00 | 0.00 | 0.00 | 89 | 1009.5 |
| 20260505082341 | 71 | 198 | 1.0 | 6.0 | 0.00 | 0.00 | 0.00 | 89 | 1009.5 |
| 20260505081830 | 71 | 190 | 3.0 | 7.0 | 0.00 | 0.00 | 0.00 | 89 | 1009.6 |
| 20260505081356 | 71 | 183 | 3.0 | 10.0 | 0.00 | 0.00 | 0.00 | 89 | 1009.6 |
| 20260505080821 | 71 | 175 | 3.0 | 10.0 | 0.00 | 0.00 | 0.00 | 89 | 1009.6 |
| 20260505080328 | 71 | 190 | 3.0 | 7.0 | 0.00 | 0.00 | 0.00 | 89 | 1009.7 |
| 20260505075833 | 71 | 175 | 4.0 | 7.0 | 0.00 | 0.00 | 0.00 | 89 | 1009.7 |
| 20260505075358 | 71 | 189 | 3.0 | 6.0 | 0.00 | 0.00 | 0.00 | 88 | 1009.7 |
| 20260505074822 | 72 | 178 | 3.0 | 7.0 | 0.00 | 0.00 | 0.00 | 88 | 1009.7 |
| 20260505074328 | 72 | 182 | 2.0 | 7.0 | 0.00 | 0.00 | 0.00 | 88 | 1009.7 |
| 20260505073836 | 72 | 172 | 4.0 | 9.0 | 0.00 | 0.00 | 0.00 | 88 | 1009.7 |
| 20260505073321 | 72 | 138 | 4.0 | 9.0 | 0.00 | 0.00 | 0.00 | 88 | 1009.7 |
| 20260505072828 | 72 | 190 | 3.0 | 6.0 | 0.00 | 0.00 | 0.00 | 88 | 1009.7 |
| 20260505072334 | 72 | 193 | 3.0 | 6.0 | 0.00 | 0.00 | 0.00 | 87 | 1009.7 |
| 20260505071823 | 72 | 188 | 3.0 | 9.0 | 0.00 | 0.00 | 0.00 | 87 | 1010.1 |
| 20260505071331 | 72 | 179 | 3.0 | 8.0 | 0.00 | 0.00 | 0.00 | 87 | 1010.1 |
| 20260505070836 | 72 | 184 | 3.0 | 9.0 | 0.00 | 0.00 | 0.00 | 87 | 1010.1 |
| 20260505070402 | 72 | 125 | 5.0 | 9.0 | 0.00 | 0.00 | 0.00 | 87 | 1010.1 |
| 20260505065824 | 72 | 150 | 2.0 | 9.0 | 0.00 | 0.00 | 0.00 | 87 | 1010.1 |
| 20260505065329 | 72 | 151 | 4.0 | 9.0 | 0.00 | 0.00 | 0.00 | 87 | 1010.1 |
| 20260505064834 | 71 | 182 | 4.0 | 9.0 | 0.00 | 0.00 | 0.00 | 87 | 1010.2 |
| 20260505064339 | 71 | 191 | 4.0 | 9.0 | 0.00 | 0.00 | 0.00 | 86 | 1010.2 |
| 20260505063823 | 71 | 198 | 5.0 | 9.0 | 0.00 | 0.00 | 0.00 | 86 | 1010.2 |
| 20260505063328 | 71 | 194 | 4.0 | 7.0 | 0.00 | 0.00 | 0.00 | 86 | 1010.5 |
| 20260505062835 | 71 | 175 | 5.0 | 7.0 | 0.00 | 0.00 | 0.00 | 86 | 1010.5 |
| 20260505062338 | 71 | 158 | 4.0 | 7.0 | 0.00 | 0.00 | 0.00 | 86 | 1010.5 |
| 20260505061824 | 71 | 187 | 4.0 | 7.0 | 0.00 | 0.00 | 0.00 | 86 | 1010.7 |
| 20260505061329 | 71 | 155 | 3.0 | 7.0 | 0.00 | 0.00 | 0.00 | 85 | 1010.7 |
| 20260505060834 | 72 | 162 | 4.0 | 7.0 | 0.00 | 0.00 | 0.00 | 85 | 1010.7 |
| 20260505060323 | 72 | 160 | 3.0 | 7.0 | 0.00 | 0.00 | 0.00 | 85 | 1010.7 |
| 20260505055827 | 72 | 177 | 3.0 | 10.0 | 0.00 | 0.00 | 0.00 | 85 | 1010.7 |
| 20260505055333 | 72 | 185 | 6.0 | 10.0 | 0.00 | 0.00 | 0.00 | 85 | 1010.7 |
| 20260505054859 | 72 | 186 | 4.0 | 11.0 | 0.00 | 0.00 | 0.00 | 85 | 1010.7 |
| 20260505054323 | 72 | 163 | 4.0 | 11.0 | 0.00 | 0.00 | 0.00 | 85 | 1010.7 |
| 20260505053831 | 72 | 160 | 3.0 | 10.0 | 0.00 | 0.00 | 0.00 | 85 | 1010.7 |
| 20260505053336 | 72 | 159 | 4.0 | 7.0 | 0.00 | 0.00 | 0.00 | 84 | 1011.0 |
| 20260505052841 | 72 | 151 | 4.0 | 7.0 | 0.00 | 0.00 | 0.00 | 84 | 1011.0 |
| 20260505052327 | 72 | 184 | 5.0 | 7.0 | 0.00 | 0.00 | 0.00 | 84 | 1011.0 |
| 20260505051832 | 72 | 186 | 3.0 | 6.0 | 0.00 | 0.00 | 0.00 | 84 | 1011.1 |
| 20260505051359 | 72 | 183 | 3.0 | 10.0 | 0.00 | 0.00 | 0.00 | 84 | 1011.1 |
| 20260505050823 | 72 | 185 | 6.0 | 10.0 | 0.00 | 0.00 | 0.00 | 83 | 1011.1 |
| 20260505050337 | 72 | 170 | 5.0 | 9.0 | 0.00 | 0.00 | 0.00 | 83 | 1011.2 |
| 20260505041327 | 73 | 209 | 6.0 | 11.0 | 0.00 | 0.00 | 0.00 | 81 | 1011.0 |
| 20260505040852 | 73 | 148 | 5.0 | 12.0 | 0.00 | 0.00 | 0.00 | 81 | 1011.0 |
| 20260505040341 | 73 | 198 | 5.0 | 15.0 | 0.00 | 0.00 | 0.00 | 81 | 1011.2 |
| 20260505035846 | 73 | 184 | 5.0 | 15.0 | 0.00 | 0.00 | 0.00 | 81 | 1011.2 |
| 20260505035329 | 73 | 176 | 7.0 | 12.0 | 0.00 | 0.00 | 0.00 | 81 | 1011.2 |
| 20260505034857 | 73 | 143 | 5.0 | 13.0 | 0.00 | 0.00 | 0.00 | 80 | 1011.5 |
| 20260505034341 | 73 | 154 | 6.0 | 13.0 | 0.00 | 0.00 | 0.00 | 80 | 1011.5 |
| 20260505033826 | 73 | 165 | 7.0 | 15.0 | 0.00 | 0.00 | 0.00 | 80 | 1011.5 |
| 20260505033352 | 73 | 176 | 8.0 | 15.0 | 0.00 | 0.00 | 0.00 | 80 | 1011.4 |
| 20260505032856 | 73 | 193 | 5.0 | 15.0 | 0.00 | 0.00 | 0.00 | 80 | 1011.4 |
| 20260505032341 | 73 | 180 | 7.0 | 15.0 | 0.00 | 0.00 | 0.00 | 79 | 1011.4 |
| 20260505031825 | 74 | 173 | 5.0 | 12.0 | 0.00 | 0.00 | 0.00 | 79 | 1011.2 |
| 20260505031330 | 74 | 188 | 8.0 | 12.0 | 0.00 | 0.00 | 0.00 | 79 | 1011.2 |
| 20260505030837 | 74 | 201 | 8.0 | 16.0 | 0.00 | 0.00 | 0.00 | 79 | 1011.2 |
| 20260505030322 | 74 | 201 | 10.0 | 16.0 | 0.00 | 0.00 | 0.00 | 79 | 1011.2 |
| 20260505025826 | 74 | 146 | 7.0 | 17.0 | 0.00 | 0.00 | 0.00 | 78 | 1011.2 |
| 20260505025337 | 74 | 125 | 8.0 | 17.0 | 0.00 | 0.00 | 0.00 | 78 | 1011.2 |
| 20260505024823 | 74 | 132 | 5.0 | 13.0 | 0.00 | 0.00 | 0.00 | 78 | 1011.3 |
| 20260505024328 | 74 | 151 | 7.0 | 13.0 | 0.00 | 0.00 | 0.00 | 78 | 1011.3 |
| 20260505023833 | 74 | 141 | 7.0 | 13.0 | 0.00 | 0.00 | 0.00 | 77 | 1011.3 |
| 20260505023338 | 74 | 153 | 5.0 | 13.0 | 0.00 | 0.00 | 0.00 | 77 | 1011.2 |
| 20260505022824 | 74 | 175 | 5.0 | 16.0 | 0.00 | 0.00 | 0.00 | 77 | 1011.2 |
| 20260505022329 | 74 | 196 | 9.0 | 14.0 | 0.00 | 0.00 | 0.00 | 77 | 1011.2 |
| 20260505021833 | 75 | 159 | 6.0 | 12.0 | 0.00 | 0.00 | 0.00 | 77 | 1011.2 |
| 20260505021338 | 75 | 134 | 6.0 | 12.0 | 0.00 | 0.00 | 0.00 | 76 | 1011.2 |
| 20260505020822 | 75 | 201 | 8.0 | 14.0 | 0.00 | 0.00 | 0.00 | 76 | 1011.2 |
| 20260505020327 | 75 | 191 | 7.0 | 17.0 | 0.00 | 0.00 | 0.00 | 76 | 1011.1 |
| 20260505015835 | 75 | 147 | 8.0 | 17.0 | 0.00 | 0.00 | 0.00 | 76 | 1011.1 |
| 20260505015321 | 75 | 202 | 8.0 | 15.0 | 0.00 | 0.00 | 0.00 | 75 | 1011.1 |
| 20260505014826 | 75 | 208 | 8.0 | 15.0 | 0.00 | 0.00 | 0.00 | 75 | 1010.8 |
| 20260505014334 | 75 | 155 | 4.0 | 12.0 | 0.00 | 0.00 | 0.00 | 75 | 1010.8 |
| 20260505013821 | 75 | 135 | 6.0 | 13.0 | 0.00 | 0.00 | 0.00 | 75 | 1010.8 |
| 20260505013329 | 76 | 200 | 7.0 | 13.0 | 0.00 | 0.00 | 0.00 | 75 | 1010.7 |
| 20260505012855 | 76 | 185 | 5.0 | 13.0 | 0.00 | 0.00 | 0.00 | 74 | 1010.7 |
| 20260505012319 | 76 | 161 | 6.0 | 12.0 | 0.00 | 0.00 | 0.00 | 74 | 1010.7 |
| 20260505011828 | 76 | 143 | 8.0 | 12.0 | 0.00 | 0.00 | 0.00 | 74 | 1010.7 |
| 20260505011335 | 76 | 145 | 6.0 | 11.0 | 0.00 | 0.00 | 0.00 | 74 | 1010.7 |
| 20260505010820 | 76 | 137 | 6.0 | 12.0 | 0.00 | 0.00 | 0.00 | 74 | 1010.7 |
| 20260505010348 | 76 | 206 | 5.0 | 14.0 | 0.00 | 0.00 | 0.00 | 73 | 1010.7 |
| 20260505005820 | 76 | 189 | 5.0 | 13.0 | 0.00 | 0.00 | 0.00 | 73 | 1010.7 |
| 20260505005328 | 76 | 182 | 8.0 | 16.0 | 0.00 | 0.00 | 0.00 | 73 | 1010.7 |
| 20260505004857 | 76 | 191 | 7.0 | 16.0 | 0.00 | 0.00 | 0.00 | 73 | 1010.6 |
| 20260505004323 | 76 | 163 | 4.0 | 12.0 | 0.00 | 0.00 | 0.00 | 73 | 1010.6 |
| 20260505003829 | 76 | 176 | 5.0 | 12.0 | 0.00 | 0.00 | 0.00 | 73 | 1010.6 |
| 20260505003335 | 77 | 165 | 5.0 | 12.0 | 0.00 | 0.00 | 0.00 | 72 | 1010.7 |
| 20260505002841 | 77 | 140 | 7.0 | 12.0 | 0.00 | 0.00 | 0.00 | 72 | 1010.7 |
| 20260505002327 | 77 | 168 | 4.0 | 9.0 | 0.00 | 0.00 | 0.00 | 72 | 1010.7 |
| 20260505001834 | 77 | 189 | 3.0 | 11.0 | 0.00 | 0.00 | 0.00 | 72 | 1010.8 |
| 20260505001343 | 77 | 197 | 6.0 | 15.0 | 0.00 | 0.00 | 0.00 | 71 | 1010.8 |
| 20260505000829 | 77 | 143 | 7.0 | 11.0 | 0.00 | 0.00 | 0.00 | 71 | 1010.8 |
| 20260505000336 | 77 | 178 | 7.0 | 14.0 | 0.00 | 0.00 | 0.00 | 70 | 1010.7 |
| 20260504235819 | 78 | 185 | 10.0 | 14.0 | 0.00 | 0.00 | 0.00 | 70 | 1010.7 |
| 20260504235332 | 78 | 141 | 8.0 | 14.0 | 0.00 | 0.00 | 0.00 | 70 | 1010.7 |
| 20260504234839 | 78 | 147 | 8.0 | 14.0 | 0.00 | 0.00 | 0.00 | 70 | 1011.0 |
| 20260504234346 | 78 | 162 | 8.0 | 13.0 | 0.00 | 0.00 | 0.00 | 70 | 1011.0 |
| 20260504233830 | 78 | 134 | 8.0 | 13.0 | 0.00 | 0.00 | 0.00 | 69 | 1011.0 |
| 20260504233334 | 78 | 179 | 6.0 | 13.0 | 0.00 | 0.00 | 0.00 | 70 | 1011.1 |
| 20260504232838 | 78 | 196 | 6.0 | 13.0 | 0.00 | 0.00 | 0.00 | 69 | 1011.1 |
| 20260504232322 | 78 | 191 | 4.0 | 13.0 | 0.00 | 0.00 | 0.00 | 69 | 1011.1 |
| 20260504231845 | 78 | 162 | 8.0 | 13.0 | 0.00 | 0.00 | 0.00 | 69 | 1011.2 |
| 20260504231329 | 78 | 181 | 7.0 | 13.0 | 0.00 | 0.00 | 0.00 | 69 | 1011.2 |
| 20260504230836 | 79 | 203 | 8.0 | 12.0 | 0.00 | 0.00 | 0.00 | 68 | 1011.2 |
| 20260504230400 | 79 | 145 | 6.0 | 15.0 | 0.00 | 0.00 | 0.00 | 68 | 1011.2 |
| 20260504225840 | 79 | 202 | 8.0 | 15.0 | 0.00 | 0.00 | 0.00 | 68 | 1011.2 |
| 20260504225325 | 79 | 221 | 7.0 | 15.0 | 0.00 | 0.00 | 0.00 | 68 | 1011.2 |
| 20260504224829 | 79 | 166 | 9.0 | 15.0 | 0.00 | 0.00 | 0.00 | 67 | 1011.3 |
| 20260504224331 | 79 | 184 | 7.0 | 15.0 | 0.00 | 0.00 | 0.00 | 67 | 1011.3 |
| 20260504223834 | 79 | 135 | 7.0 | 12.0 | 0.00 | 0.00 | 0.00 | 67 | 1011.3 |
| 20260504223322 | 79 | 188 | 6.0 | 14.0 | 0.00 | 0.00 | 0.00 | 66 | 1011.5 |
| 20260504222824 | 80 | 153 | 6.0 | 14.0 | 0.00 | 0.00 | 0.00 | 66 | 1011.5 |
| 20260504222327 | 80 | 163 | 7.0 | 15.0 | 0.00 | 0.00 | 0.00 | 65 | 1011.5 |
| 20260504221830 | 80 | 182 | 10.0 | 15.0 | 0.00 | 0.00 | 0.00 | 64 | 1011.7 |